Time,TemperatureF,DewpointF,PressureIn,WindDirection,WindDirectionDegrees,WindSpeedMPH,WindSpeedGustMPH,Humidity,HourlyPrecipIn,Conditions,Clouds,dailyrainin,SoftwareType,DateUTC
2013-02-23 00:00:00,22.3,17.6,29.97,ESE,113,0.0,0.0,82,0.00,,,0.00,WUHU216HW,2013-02-23 06:00:00,
2013-02-23 00:05:00,22.1,17.5,29.97,ESE,113,0.0,0.0,82,0.00,,,0.00,WUHU216HW,2013-02-23 06:05:00,
2013-02-23 00:10:00,22.1,17.5,29.96,ESE,113,0.0,0.0,82,0.00,,,0.00,WUHU216HW,2013-02-23 06:10:00,
2013-02-23 00:15:00,22.0,17.3,29.97,ESE,113,0.0,0.0,82,0.00,,,0.00,WUHU216HW,2013-02-23 06:15:00,
2013-02-23 00:20:00,22.0,17.3,29.98,ESE,113,0.0,0.0,82,0.00,,,0.00,WUHU216HW,2013-02-23 06:20:00,
2013-02-23 00:25:00,22.0,17.6,29.97,ESE,113,0.0,0.0,83,0.00,,,0.00,WUHU216HW,2013-02-23 06:25:00,
2013-02-23 00:30:00,22.0,17.6,29.97,ESE,113,0.0,0.0,83,0.00,,,0.00,WUHU216HW,2013-02-23 06:30:00,
2013-02-23 00:35:00,21.8,17.4,29.97,ESE,113,0.0,0.0,83,0.00,,,0.00,WUHU216HW,2013-02-23 06:35:00,
2013-02-23 00:40:00,21.8,17.4,29.97,ESE,113,0.0,0.0,83,0.00,,,0.00,WUHU216HW,2013-02-23 06:40:00,
2013-02-23 00:45:00,21.6,17.2,29.97,ESE,113,0.0,0.0,83,0.00,,,0.00,WUHU216HW,2013-02-23 06:45:00,
2013-02-23 00:50:00,21.6,17.2,29.96,ESE,113,0.0,0.0,83,0.00,,,0.00,WUHU216HW,2013-02-23 06:50:00,
2013-02-23 00:55:00,21.4,17.0,29.96,ESE,113,0.0,0.0,83,0.00,,,0.00,WUHU216HW,2013-02-23 06:55:00,
2013-02-23 01:00:00,21.4,17.0,29.96,ESE,113,0.0,0.0,83,0.00,,,0.00,WUHU216HW,2013-02-23 07:00:00,
2013-02-23 01:05:00,21.2,16.8,29.96,ESE,113,0.0,0.0,83,0.00,,,0.00,WUHU216HW,2013-02-23 07:05:00,
2013-02-23 01:10:00,21.2,16.8,29.96,ESE,113,0.0,0.0,83,0.00,,,0.00,WUHU216HW,2013-02-23 07:10:00,
2013-02-23 01:15:00,21.2,16.8,29.96,ESE,113,0.0,0.0,83,0.00,,,0.00,WUHU216HW,2013-02-23 07:15:00,
2013-02-23 01:20:00,21.1,16.7,29.96,ESE,113,0.0,0.0,83,0.00,,,0.00,WUHU216HW,2013-02-23 07:20:00,
2013-02-23 01:25:00,21.1,16.9,29.96,ESE,113,0.0,0.0,84,0.00,,,0.00,WUHU216HW,2013-02-23 07:25:00,
2013-02-23 01:30:00,20.9,16.7,29.96,ESE,113,0.0,0.0,84,0.00,,,0.00,WUHU216HW,2013-02-23 07:30:00,
2013-02-23 01:35:00,20.9,16.7,29.96,ESE,113,0.0,0.0,84,0.00,,,0.00,WUHU216HW,2013-02-23 07:35:00,
2013-02-23 01:40:00,20.9,16.7,29.96,ESE,113,0.0,0.0,84,0.00,,,0.00,WUHU216HW,2013-02-23 07:40:00,
2013-02-23 01:45:00,20.7,16.6,29.96,ESE,113,0.0,0.0,84,0.00,,,0.00,WUHU216HW,2013-02-23 07:45:00,
2013-02-23 01:50:00,20.7,16.6,29.96,ESE,113,0.0,0.0,84,0.00,,,0.00,WUHU216HW,2013-02-23 07:50:00,
2013-02-23 01:55:00,20.5,15.8,29.96,ESE,113,0.0,0.0,82,0.00,,,0.00,WUHU216HW,2013-02-23 07:55:00,
2013-02-23 02:00:00,20.5,16.1,29.96,ESE,113,0.0,0.0,83,0.00,,,0.00,WUHU216HW,2013-02-23 08:00:00,
2013-02-23 02:05:00,20.5,15.8,29.95,ESE,113,0.0,0.0,82,0.00,,,0.00,WUHU216HW,2013-02-23 08:05:00,
2013-02-23 02:10:00,20.3,15.9,29.95,ESE,113,0.0,0.0,83,0.00,,,0.00,WUHU216HW,2013-02-23 08:10:00,
2013-02-23 02:15:00,20.3,15.9,29.95,ESE,113,0.0,0.0,83,0.00,,,0.00,WUHU216HW,2013-02-23 08:15:00,
2013-02-23 02:20:00,20.2,15.8,29.95,ESE,113,0.0,0.0,83,0.00,,,0.00,WUHU216HW,2013-02-23 08:20:00,
2013-02-23 02:25:00,20.2,15.8,29.95,ESE,113,0.0,0.0,83,0.00,,,0.00,WUHU216HW,2013-02-23 08:25:00,
2013-02-23 02:30:00,20.2,15.8,29.95,ESE,113,0.0,0.0,83,0.00,,,0.00,WUHU216HW,2013-02-23 08:30:00,
2013-02-23 02:35:00,20.2,15.8,29.96,ESE,113,0.0,0.0,83,0.00,,,0.00,WUHU216HW,2013-02-23 08:35:00,
2013-02-23 02:40:00,20.0,15.8,29.95,ESE,113,0.0,0.0,84,0.00,,,0.00,WUHU216HW,2013-02-23 08:40:00,
2013-02-23 02:45:00,20.0,15.8,29.94,ESE,113,0.0,0.0,84,0.00,,,0.00,WUHU216HW,2013-02-23 08:45:00,
2013-02-23 02:50:00,19.8,15.4,29.94,ESE,113,0.0,0.0,83,0.00,,,0.00,WUHU216HW,2013-02-23 08:50:00,
2013-02-23 02:55:00,19.8,15.7,29.93,ESE,113,0.0,0.0,84,0.00,,,0.00,WUHU216HW,2013-02-23 08:55:00,
2013-02-23 03:00:00,19.8,15.7,29.93,ESE,113,0.0,0.0,84,0.00,,,0.00,WUHU216HW,2013-02-23 09:00:00,
2013-02-23 03:05:00,19.8,15.7,29.92,ESE,113,0.0,0.0,84,0.00,,,0.00,WUHU216HW,2013-02-23 09:05:00,
2013-02-23 03:10:00,19.8,15.7,29.93,ESE,113,0.0,0.0,84,0.00,,,0.00,WUHU216HW,2013-02-23 09:10:00,
2013-02-23 03:15:00,19.6,15.5,29.93,ESE,113,0.0,0.0,84,0.00,,,0.00,WUHU216HW,2013-02-23 09:15:00,
2013-02-23 03:20:00,19.6,15.5,29.93,ESE,113,0.0,0.0,84,0.00,,,0.00,WUHU216HW,2013-02-23 09:20:00,
2013-02-23 03:25:00,19.8,15.7,29.93,ESE,113,0.0,0.0,84,0.00,,,0.00,WUHU216HW,2013-02-23 09:25:00,
2013-02-23 03:30:00,19.8,15.7,29.93,ESE,113,0.0,0.0,84,0.00,,,0.00,WUHU216HW,2013-02-23 09:30:00,
2013-02-23 03:35:00,19.6,15.5,29.93,ESE,113,0.0,0.0,84,0.00,,,0.00,WUHU216HW,2013-02-23 09:35:00,
2013-02-23 03:40:00,19.6,15.2,29.93,ESE,113,0.0,0.0,83,0.00,,,0.00,WUHU216HW,2013-02-23 09:40:00,
2013-02-23 03:45:00,19.6,15.2,29.93,ESE,113,0.0,0.0,83,0.00,,,0.00,WUHU216HW,2013-02-23 09:45:00,
2013-02-23 03:50:00,19.4,15.0,29.93,ESE,113,0.0,0.0,83,0.00,,,0.00,WUHU216HW,2013-02-23 09:50:00,
2013-02-23 03:55:00,19.4,15.0,29.92,ESE,113,0.0,0.0,83,0.00,,,0.00,WUHU216HW,2013-02-23 09:55:00,
2013-02-23 04:00:00,19.4,15.0,29.92,ESE,113,0.0,0.0,83,0.00,,,0.00,WUHU216HW,2013-02-23 10:00:00,
2013-02-23 04:05:00,19.4,15.0,29.92,ESE,113,0.0,0.0,83,0.00,,,0.00,WUHU216HW,2013-02-23 10:05:00,
2013-02-23 04:10:00,19.3,14.9,29.92,ESE,113,0.0,0.0,83,0.00,,,0.00,WUHU216HW,2013-02-23 10:10:00,
2013-02-23 04:15:00,19.3,15.1,29.91,ESE,113,0.0,0.0,84,0.00,,,0.00,WUHU216HW,2013-02-23 10:15:00,
2013-02-23 04:20:00,19.1,14.7,29.92,ESE,113,0.0,0.0,83,0.00,,,0.00,WUHU216HW,2013-02-23 10:20:00,
2013-02-23 04:25:00,19.1,14.9,29.93,ESE,113,0.0,0.0,84,0.00,,,0.00,WUHU216HW,2013-02-23 10:25:00,
2013-02-23 04:30:00,19.1,14.9,29.93,ESE,113,0.0,0.0,84,0.00,,,0.00,WUHU216HW,2013-02-23 10:30:00,
2013-02-23 04:35:00,18.9,14.8,29.93,ESE,113,0.0,0.0,84,0.00,,,0.00,WUHU216HW,2013-02-23 10:35:00,
2013-02-23 04:40:00,18.9,14.8,29.93,ESE,113,0.0,0.0,84,0.00,,,0.00,WUHU216HW,2013-02-23 10:40:00,
2013-02-23 04:45:00,18.7,14.6,29.92,ESE,113,0.0,0.0,84,0.00,,,0.00,WUHU216HW,2013-02-23 10:45:00,
2013-02-23 04:50:00,18.7,14.6,29.92,ESE,113,0.0,0.0,84,0.00,,,0.00,WUHU216HW,2013-02-23 10:50:00,
2013-02-23 04:55:00,18.7,14.6,29.92,ESE,113,0.0,0.0,84,0.00,,,0.00,WUHU216HW,2013-02-23 10:55:00,
2013-02-23 05:00:00,18.7,14.6,29.92,ESE,113,0.0,0.0,84,0.00,,,0.00,WUHU216HW,2013-02-23 11:00:00,
2013-02-23 05:05:00,18.7,14.6,29.92,ESE,113,0.0,0.0,84,0.00,,,0.00,WUHU216HW,2013-02-23 11:05:00,
2013-02-23 05:10:00,18.5,14.4,29.92,ESE,113,0.0,0.0,84,0.00,,,0.00,WUHU216HW,2013-02-23 11:10:00,
2013-02-23 05:15:00,18.7,14.6,29.92,ESE,113,0.0,0.0,84,0.00,,,0.00,WUHU216HW,2013-02-23 11:15:00,
2013-02-23 05:20:00,18.5,14.4,29.91,ESE,113,0.0,0.0,84,0.00,,,0.00,WUHU216HW,2013-02-23 11:20:00,
2013-02-23 05:25:00,18.5,14.4,29.91,ESE,113,0.0,0.0,84,0.00,,,0.00,WUHU216HW,2013-02-23 11:25:00,
2013-02-23 05:31:00,18.5,14.4,29.91,ESE,113,0.0,0.0,84,0.00,,,0.00,WUHU216HW,2013-02-23 11:31:00,
2013-02-23 05:35:00,18.7,15.1,29.92,ESE,113,0.0,0.0,86,0.00,,,0.00,WUHU216HW,2013-02-23 11:35:00,
2013-02-23 05:40:00,19.1,15.5,29.92,ESE,113,0.0,0.0,86,0.00,,,0.00,WUHU216HW,2013-02-23 11:40:00,
2013-02-23 05:45:00,18.9,15.0,29.92,ESE,113,0.0,0.0,85,0.00,,,0.00,WUHU216HW,2013-02-23 11:45:00,
2013-02-23 05:51:00,18.7,14.6,29.91,ESE,113,0.0,0.0,84,0.00,,,0.00,WUHU216HW,2013-02-23 11:51:00,
2013-02-23 05:55:00,18.7,14.9,29.91,ESE,113,0.0,0.0,85,0.00,,,0.00,WUHU216HW,2013-02-23 11:55:00,
2013-02-23 06:00:00,18.5,14.7,29.91,ESE,113,0.0,0.0,85,0.00,,,0.00,WUHU216HW,2013-02-23 12:00:00,
2013-02-23 06:05:00,18.5,14.4,29.90,ESE,113,0.0,0.0,84,0.00,,,0.00,WUHU216HW,2013-02-23 12:05:00,
2013-02-23 06:10:00,18.5,15.2,29.89,ESE,113,0.0,0.0,87,0.00,,,0.00,WUHU216HW,2013-02-23 12:10:00,
2013-02-23 06:16:00,18.4,14.8,29.89,ESE,113,0.0,0.0,86,0.00,,,0.00,WUHU216HW,2013-02-23 12:16:00,
2013-02-23 06:21:00,18.4,14.5,29.90,ESE,113,0.0,0.0,85,0.00,,,0.00,WUHU216HW,2013-02-23 12:21:00,
2013-02-23 06:26:00,18.4,14.5,29.89,ESE,113,0.0,0.0,85,0.00,,,0.00,WUHU216HW,2013-02-23 12:26:00,
2013-02-23 06:31:00,18.4,14.5,29.91,ESE,113,0.0,0.0,85,0.00,,,0.00,WUHU216HW,2013-02-23 12:31:00,
2013-02-23 06:35:00,18.4,14.5,29.91,ESE,113,0.0,0.0,85,0.00,,,0.00,WUHU216HW,2013-02-23 12:35:00,
2013-02-23 06:40:00,18.2,14.3,29.91,ESE,113,0.0,0.0,85,0.00,,,0.00,WUHU216HW,2013-02-23 12:40:00,
2013-02-23 06:45:00,18.2,14.3,29.91,ESE,113,0.0,0.0,85,0.00,,,0.00,WUHU216HW,2013-02-23 12:45:00,
2013-02-23 06:50:00,18.2,14.3,29.91,ESE,113,0.0,0.0,85,0.00,,,0.00,WUHU216HW,2013-02-23 12:50:00,
2013-02-23 06:55:00,18.2,14.3,29.91,ESE,113,0.0,0.0,85,0.00,,,0.00,WUHU216HW,2013-02-23 12:55:00,
2013-02-23 07:00:00,18.2,14.6,29.91,ESE,113,0.0,0.0,86,0.00,,,0.00,WUHU216HW,2013-02-23 13:00:00,
2013-02-23 07:05:00,18.4,14.8,29.91,ESE,113,0.0,0.0,86,0.00,,,0.00,WUHU216HW,2013-02-23 13:05:00,
2013-02-23 07:10:00,18.4,14.8,29.91,ESE,113,0.0,0.0,86,0.00,,,0.00,WUHU216HW,2013-02-23 13:10:00,
2013-02-23 07:15:00,18.5,14.7,29.91,ESE,113,0.0,0.0,85,0.00,,,0.00,WUHU216HW,2013-02-23 13:15:00,
2013-02-23 07:20:00,19.1,15.2,29.91,ESE,113,0.0,0.0,85,0.00,,,0.00,WUHU216HW,2013-02-23 13:20:00,
2013-02-23 07:25:00,19.6,16.0,29.91,ESE,113,0.0,0.0,86,0.00,,,0.00,WUHU216HW,2013-02-23 13:25:00,
2013-02-23 07:30:00,20.3,16.7,29.91,ESE,113,0.0,0.0,86,0.00,,,0.00,WUHU216HW,2013-02-23 13:30:00,
2013-02-23 07:35:00,20.9,17.0,29.91,ESE,113,0.0,0.0,85,0.00,,,0.00,WUHU216HW,2013-02-23 13:35:00,
2013-02-23 07:40:00,20.7,16.8,29.90,ESE,113,0.0,0.0,85,0.00,,,0.00,WUHU216HW,2013-02-23 13:40:00,
2013-02-23 07:45:00,20.7,16.8,29.91,ESE,113,0.0,0.0,85,0.00,,,0.00,WUHU216HW,2013-02-23 13:45:00,
2013-02-23 07:50:00,20.7,16.8,29.91,ESE,113,0.0,0.0,85,0.00,,,0.00,WUHU216HW,2013-02-23 13:50:00,
2013-02-23 07:55:00,20.9,17.0,29.91,ESE,113,0.0,0.0,85,0.00,,,0.00,WUHU216HW,2013-02-23 13:55:00,
2013-02-23 08:00:00,21.1,17.2,29.91,ESE,113,0.0,0.0,85,0.00,,,0.00,WUHU216HW,2013-02-23 14:00:00,
2013-02-23 08:05:00,21.2,17.4,29.91,ESE,113,0.0,0.0,85,0.00,,,0.00,WUHU216HW,2013-02-23 14:05:00,
2013-02-23 08:10:00,21.4,17.3,29.91,ESE,113,0.0,0.0,84,0.00,,,0.00,WUHU216HW,2013-02-23 14:10:00,
2013-02-23 08:15:00,21.4,17.0,29.91,ESE,113,0.0,0.0,83,0.00,,,0.00,WUHU216HW,2013-02-23 14:15:00,
2013-02-23 08:20:00,21.6,17.2,29.91,ESE,113,0.0,0.0,83,0.00,,,0.00,WUHU216HW,2013-02-23 14:20:00,
2013-02-23 08:25:00,22.0,17.6,29.91,ESE,113,0.0,0.0,83,0.00,,,0.00,WUHU216HW,2013-02-23 14:25:00,
2013-02-23 08:30:00,22.0,17.6,29.92,ESE,113,0.0,0.0,83,0.00,,,0.00,WUHU216HW,2013-02-23 14:30:00,
2013-02-23 08:35:00,22.9,18.5,29.92,ESE,113,0.0,0.0,83,0.00,,,0.00,WUHU216HW,2013-02-23 14:35:00,
2013-02-23 08:40:00,24.3,20.2,29.92,ESE,113,0.0,0.0,84,0.00,,,0.00,WUHU216HW,2013-02-23 14:40:00,
2013-02-23 08:45:00,25.6,20.8,29.92,ESE,113,0.0,0.0,82,0.00,,,0.00,WUHU216HW,2013-02-23 14:45:00,
2013-02-23 08:50:00,25.6,20.0,29.91,ESE,113,0.0,0.0,79,0.00,,,0.00,WUHU216HW,2013-02-23 14:50:00,
2013-02-23 08:55:00,25.7,20.4,29.92,ESE,113,0.0,0.0,80,0.00,,,0.00,WUHU216HW,2013-02-23 14:55:00,
2013-02-23 09:00:00,26.5,20.8,29.92,ESE,113,0.0,0.0,79,0.00,,,0.00,WUHU216HW,2013-02-23 15:00:00,
2013-02-23 09:05:00,27.2,20.9,29.92,ESE,113,0.0,0.0,77,0.00,,,0.00,WUHU216HW,2013-02-23 15:05:00,
2013-02-23 09:10:00,26.8,20.8,29.93,ESE,113,0.0,0.0,78,0.00,,,0.00,WUHU216HW,2013-02-23 15:10:00,
2013-02-23 09:15:00,27.0,20.7,29.93,ESE,113,0.0,0.0,77,0.00,,,0.00,WUHU216HW,2013-02-23 15:15:00,
2013-02-23 09:20:00,27.0,19.2,29.93,ESE,113,0.0,0.0,72,0.00,,,0.00,WUHU216HW,2013-02-23 15:20:00,
2013-02-23 09:25:00,26.5,19.3,29.93,ESE,113,0.0,0.0,74,0.00,,,0.00,WUHU216HW,2013-02-23 15:25:00,
2013-02-23 09:30:00,27.5,20.6,29.93,ESE,113,0.0,0.0,75,0.00,,,0.00,WUHU216HW,2013-02-23 15:30:00,
2013-02-23 09:35:00,29.2,22.2,29.93,ESE,113,0.0,0.0,75,0.00,,,0.00,WUHU216HW,2013-02-23 15:35:00,
2013-02-23 09:40:00,30.6,24.0,29.93,ESE,113,0.0,0.0,76,0.00,,,0.00,WUHU216HW,2013-02-23 15:40:00,
2013-02-23 09:45:00,30.8,21.8,29.93,ESE,113,0.0,0.0,69,0.00,,,0.00,WUHU216HW,2013-02-23 15:45:00,
2013-02-23 09:50:00,31.1,23.5,29.93,ESE,113,0.0,0.0,73,0.00,,,0.00,WUHU216HW,2013-02-23 15:50:00,
2013-02-23 09:55:00,31.3,22.3,29.93,ESE,113,0.0,0.0,69,0.00,,,0.00,WUHU216HW,2013-02-23 15:55:00,
2013-02-23 10:00:00,30.8,22.5,29.93,ESE,113,0.0,0.0,71,0.00,,,0.00,WUHU216HW,2013-02-23 16:00:00,
2013-02-23 10:05:00,31.7,24.0,29.92,ESE,113,0.0,0.0,73,0.00,,,0.00,WUHU216HW,2013-02-23 16:05:00,
2013-02-23 10:10:00,32.6,23.5,29.93,ESE,113,0.0,0.0,69,0.00,,,0.00,WUHU216HW,2013-02-23 16:10:00,
2013-02-23 10:15:00,32.6,23.5,29.92,ESE,113,0.0,0.0,69,0.00,,,0.00,WUHU216HW,2013-02-23 16:15:00,
2013-02-23 10:20:00,32.0,21.6,29.92,ESE,113,0.0,0.0,65,0.01,,,0.01,WUHU216HW,2013-02-23 16:20:00,
2013-02-23 10:25:00,32.0,22.7,29.93,ESE,113,0.0,0.0,68,0.01,,,0.01,WUHU216HW,2013-02-23 16:25:00,
2013-02-23 10:30:00,33.1,23.0,29.93,ESE,113,0.0,0.0,66,0.01,,,0.01,WUHU216HW,2013-02-23 16:30:00,
2013-02-23 10:35:00,33.5,23.6,29.93,ESE,113,0.0,0.0,67,0.01,,,0.01,WUHU216HW,2013-02-23 16:35:00,
2013-02-23 10:40:00,33.1,23.0,29.93,ESE,113,0.0,0.0,66,0.01,,,0.01,WUHU216HW,2013-02-23 16:40:00,
2013-02-23 10:45:00,34.4,24.8,29.93,ESE,113,0.0,0.0,68,0.02,,,0.02,WUHU216HW,2013-02-23 16:45:00,
2013-02-23 10:50:00,34.0,23.0,29.93,ESE,113,0.0,0.0,64,0.02,,,0.02,WUHU216HW,2013-02-23 16:50:00,
2013-02-23 10:55:00,34.2,22.9,29.93,ESE,113,0.0,0.0,63,0.02,,,0.02,WUHU216HW,2013-02-23 16:55:00,
2013-02-23 11:00:00,33.5,21.8,29.92,ESE,113,0.0,0.0,62,0.03,,,0.03,WUHU216HW,2013-02-23 17:00:00,
2013-02-23 11:05:00,33.3,21.3,29.92,ESE,113,0.0,0.0,61,0.03,,,0.03,WUHU216HW,2013-02-23 17:05:00,
2013-02-23 11:10:00,33.8,22.1,29.93,ESE,113,0.0,0.0,62,0.04,,,0.04,WUHU216HW,2013-02-23 17:10:00,
2013-02-23 11:15:00,34.4,22.3,29.93,ESE,113,0.0,0.0,61,0.03,,,0.04,WUHU216HW,2013-02-23 17:15:00,
2013-02-23 11:20:00,34.9,22.5,29.93,ESE,113,0.0,0.0,60,0.04,,,0.05,WUHU216HW,2013-02-23 17:20:00,
2013-02-23 11:25:00,34.4,20.3,29.93,ESE,113,0.0,0.0,56,0.04,,,0.05,WUHU216HW,2013-02-23 17:25:00,
2013-02-23 11:30:00,33.8,21.4,29.93,ESE,113,0.0,0.0,60,0.05,,,0.06,WUHU216HW,2013-02-23 17:30:00,
2013-02-23 11:35:00,34.2,20.9,29.93,ESE,113,0.0,0.0,58,0.05,,,0.06,WUHU216HW,2013-02-23 17:35:00,
2013-02-23 11:40:00,34.2,21.3,29.93,ESE,113,0.0,0.0,59,0.05,,,0.07,WUHU216HW,2013-02-23 17:40:00,
2013-02-23 11:45:00,33.8,21.4,29.93,ESE,113,0.0,0.0,60,0.05,,,0.07,WUHU216HW,2013-02-23 17:45:00,
2013-02-23 11:50:00,34.2,20.9,29.93,ESE,113,0.0,0.0,58,0.06,,,0.08,WUHU216HW,2013-02-23 17:50:00,
2013-02-23 11:55:00,34.4,21.5,29.92,ESE,113,0.0,0.0,59,0.06,,,0.08,WUHU216HW,2013-02-23 17:55:00,
2013-02-23 12:00:00,34.4,21.1,29.92,ESE,113,0.0,0.0,58,0.05,,,0.08,WUHU216HW,2013-02-23 18:00:00,
2013-02-23 12:05:00,34.2,20.9,29.92,ESE,113,0.0,0.0,58,0.05,,,0.09,WUHU216HW,2013-02-23 18:05:00,
2013-02-23 12:10:00,34.6,21.7,29.92,ESE,113,0.0,0.0,59,0.05,,,0.09,WUHU216HW,2013-02-23 18:10:00,
2013-02-23 12:15:00,34.7,21.9,29.92,ESE,113,0.0,0.0,59,0.05,,,0.09,WUHU216HW,2013-02-23 18:15:00,
2013-02-23 12:20:00,35.5,23.0,29.91,South,180,0.0,0.0,60,0.05,,,0.10,WUHU216HW,2013-02-23 18:20:00,
2013-02-23 12:25:00,35.3,22.9,29.91,West,270,0.0,0.0,60,0.04,,,0.10,WUHU216HW,2013-02-23 18:25:00,
2013-02-23 12:30:00,34.9,22.1,29.91,North,0,0.0,0.0,59,0.04,,,0.10,WUHU216HW,2013-02-23 18:30:00,
2013-02-23 12:35:00,35.3,22.4,29.91,South,180,0.0,0.0,59,0.05,,,0.11,WUHU216HW,2013-02-23 18:35:00,
2013-02-23 12:40:00,35.6,23.2,29.91,SSW,203,0.0,0.0,60,0.04,,,0.11,WUHU216HW,2013-02-23 18:40:00,
2013-02-23 12:45:00,36.2,23.7,29.91,West,270,0.0,0.0,60,0.04,,,0.11,WUHU216HW,2013-02-23 18:45:00,
2013-02-23 12:50:00,36.4,23.1,29.91,North,0,0.0,0.0,58,0.03,,,0.11,WUHU216HW,2013-02-23 18:50:00,
2013-02-23 12:56:00,36.0,23.1,29.91,SW,225,0.0,0.0,59,0.03,,,0.11,WUHU216HW,2013-02-23 18:56:00,
2013-02-23 13:01:00,36.2,23.7,29.91,SSE,158,0.0,0.0,60,0.03,,,0.12,WUHU216HW,2013-02-23 19:01:00,
2013-02-23 13:06:00,36.4,22.1,29.91,WSW,248,0.0,0.0,56,0.03,,,0.12,WUHU216HW,2013-02-23 19:06:00,
2013-02-23 13:11:00,36.5,24.0,29.91,SSW,203,0.0,0.0,60,0.03,,,0.12,WUHU216HW,2013-02-23 19:11:00,
2013-02-23 13:16:00,37.1,24.5,29.91,SSW,203,0.0,0.0,60,0.03,,,0.12,WUHU216HW,2013-02-23 19:16:00,
2013-02-23 13:21:00,37.1,24.1,29.90,SSW,203,0.0,0.0,59,0.02,,,0.12,WUHU216HW,2013-02-23 19:21:00,
2013-02-23 13:26:00,36.9,22.6,29.90,West,270,0.0,0.0,56,0.02,,,0.12,WUHU216HW,2013-02-23 19:26:00,
2013-02-23 13:31:00,36.9,23.5,29.89,WNW,293,0.0,0.0,58,0.03,,,0.13,WUHU216HW,2013-02-23 19:31:00,
2013-02-23 13:36:00,37.1,23.7,29.89,NNW,338,0.0,0.0,58,0.02,,,0.13,WUHU216HW,2013-02-23 19:36:00,
2013-02-23 13:41:00,37.3,24.2,29.89,SW,225,0.0,0.0,59,0.02,,,0.13,WUHU216HW,2013-02-23 19:41:00,
2013-02-23 13:46:00,38.0,24.9,29.88,SSE,158,0.0,0.0,59,0.02,,,0.13,WUHU216HW,2013-02-23 19:46:00,
2013-02-23 13:51:00,37.8,23.1,29.88,SSE,158,0.0,0.0,55,0.03,,,0.14,WUHU216HW,2013-02-23 19:51:00,
2013-02-23 13:56:00,38.0,24.9,29.88,North,0,0.0,0.0,59,0.03,,,0.14,WUHU216HW,2013-02-23 19:56:00,
2013-02-23 14:01:00,38.3,24.4,29.89,SE,135,0.0,0.0,57,0.02,,,0.14,WUHU216HW,2013-02-23 20:01:00,
2013-02-23 14:06:00,38.5,24.9,29.89,ESE,113,0.0,0.0,58,0.02,,,0.14,WUHU216HW,2013-02-23 20:06:00,
2013-02-23 14:11:00,38.9,23.9,29.89,WSW,248,0.0,0.0,55,0.02,,,0.14,WUHU216HW,2013-02-23 20:11:00,
2013-02-23 14:16:00,38.5,24.1,29.89,SW,224,3.0,4.7,56,0.03,,,0.15,WUHU216HW,2013-02-23 20:16:00,
2013-02-23 14:21:00,38.5,23.7,29.88,WSW,243,4.0,5.4,55,0.03,,,0.15,WUHU216HW,2013-02-23 20:21:00,
2013-02-23 14:26:00,39.1,23.7,29.88,SW,225,3.7,5.4,54,0.03,,,0.15,WUHU216HW,2013-02-23 20:26:00,
2013-02-23 14:31:00,39.2,23.4,29.88,SW,235,3.2,4.9,53,0.02,,,0.15,WUHU216HW,2013-02-23 20:31:00,
2013-02-23 14:36:00,39.2,23.9,29.88,SSW,201,3.4,4.3,54,0.02,,,0.15,WUHU216HW,2013-02-23 20:36:00,
2013-02-23 14:41:00,39.2,22.6,29.88,WNW,291,2.7,4.3,51,0.03,,,0.16,WUHU216HW,2013-02-23 20:41:00,
2013-02-23 14:46:00,39.2,22.1,29.88,WSW,248,3.6,4.3,50,0.03,,,0.16,WUHU216HW,2013-02-23 20:46:00,
2013-02-23 14:51:00,39.4,22.8,29.88,SE,135,1.8,3.6,51,0.02,,,0.16,WUHU216HW,2013-02-23 20:51:00,
2013-02-23 14:56:00,39.6,23.3,29.88,SSW,196,3.4,5.1,52,0.02,,,0.16,WUHU216HW,2013-02-23 20:56:00,
2013-02-23 15:01:00,39.6,22.9,29.88,West,279,2.2,5.1,51,0.02,,,0.16,WUHU216HW,2013-02-23 21:01:00,
2013-02-23 15:06:00,39.8,22.2,29.88,WSW,255,3.7,4.9,49,0.02,,,0.16,WUHU216HW,2013-02-23 21:06:00,
2013-02-23 15:11:00,39.6,23.3,29.88,North,0,3.1,4.9,52,0.02,,,0.16,WUHU216HW,2013-02-23 21:11:00,
2013-02-23 15:16:00,39.6,23.3,29.87,West,270,2.7,4.3,52,0.02,,,0.17,WUHU216HW,2013-02-23 21:16:00,
2013-02-23 15:21:00,40.0,23.2,29.87,WNW,293,3.6,4.9,51,0.02,,,0.17,WUHU216HW,2013-02-23 21:21:00,
2013-02-23 15:26:00,40.0,23.7,29.87,SSW,203,3.1,4.9,52,0.02,,,0.17,WUHU216HW,2013-02-23 21:26:00,
2013-02-23 15:31:00,39.6,22.5,29.87,NW,315,3.6,3.6,50,0.02,,,0.17,WUHU216HW,2013-02-23 21:31:00,
2013-02-23 15:36:00,39.6,22.9,29.87,WNW,295,1.5,3.6,51,0.02,,,0.17,WUHU216HW,2013-02-23 21:36:00,
2013-02-23 15:41:00,40.0,23.2,29.87,SW,225,2.2,2.9,51,0.01,,,0.17,WUHU216HW,2013-02-23 21:41:00,
2013-02-23 15:46:00,39.8,23.0,29.87,SW,225,2.0,2.9,51,0.01,,,0.17,WUHU216HW,2013-02-23 21:46:00,
2013-02-23 15:51:00,39.8,23.0,29.86,NW,315,2.2,2.9,51,0.02,,,0.18,WUHU216HW,2013-02-23 21:51:00,
2013-02-23 15:56:00,39.6,22.9,29.87,West,270,1.8,2.5,51,0.02,,,0.18,WUHU216HW,2013-02-23 21:56:00,
2013-02-23 16:01:00,39.4,22.8,29.86,NW,307,3.4,5.4,51,0.02,,,0.18,WUHU216HW,2013-02-23 22:01:00,
2013-02-23 16:06:00,39.2,22.6,29.86,North,0,1.8,5.4,51,0.02,,,0.18,WUHU216HW,2013-02-23 22:06:00,
2013-02-23 16:11:00,39.4,22.3,29.86,WNW,293,3.4,3.4,50,0.01,,,0.18,WUHU216HW,2013-02-23 22:11:00,
2013-02-23 16:16:00,39.4,22.8,29.86,West,274,1.4,3.4,51,0.01,,,0.18,WUHU216HW,2013-02-23 22:16:00,
2013-02-23 16:21:00,39.8,22.2,29.86,SW,225,2.5,2.5,49,0.01,,,0.18,WUHU216HW,2013-02-23 22:21:00,
2013-02-23 16:26:00,39.8,22.6,29.85,NW,315,2.0,2.5,50,0.01,,,0.18,WUHU216HW,2013-02-23 22:26:00,
2013-02-23 16:31:00,39.6,23.3,29.85,NNW,338,2.7,3.1,52,0.01,,,0.18,WUHU216HW,2013-02-23 22:31:00,
2013-02-23 16:36:00,39.4,23.1,29.85,NNW,338,3.6,3.6,52,0.01,,,0.18,WUHU216HW,2013-02-23 22:36:00,
2013-02-23 16:41:00,39.2,23.4,29.85,North,0,2.9,3.6,53,0.01,,,0.18,WUHU216HW,2013-02-23 22:41:00,
2013-02-23 16:46:00,39.4,22.8,29.85,WNW,293,0.9,2.9,51,0.00,,,0.18,WUHU216HW,2013-02-23 22:46:00,
2013-02-23 16:51:00,40.0,23.7,29.86,West,274,1.9,2.7,52,0.00,,,0.18,WUHU216HW,2013-02-23 22:51:00,
2013-02-23 16:56:00,40.0,23.2,29.86,West,279,1.5,2.7,51,0.00,,,0.18,WUHU216HW,2013-02-23 22:56:00,
2013-02-23 17:01:00,40.5,23.8,29.86,WNW,294,1.0,2.7,51,0.01,,,0.19,WUHU216HW,2013-02-23 23:01:00,
2013-02-23 17:06:00,41.0,24.2,29.86,NNW,338,1.1,2.0,51,0.01,,,0.19,WUHU216HW,2013-02-23 23:06:00,
2013-02-23 17:11:00,41.0,24.2,29.86,NW,315,1.8,3.4,51,0.01,,,0.19,WUHU216HW,2013-02-23 23:11:00,
2013-02-23 17:16:00,41.0,23.2,29.86,NW,322,1.3,3.4,49,0.01,,,0.19,WUHU216HW,2013-02-23 23:16:00,
2013-02-23 17:21:00,40.3,23.6,29.86,NW,315,1.1,1.8,51,0.01,,,0.19,WUHU216HW,2013-02-23 23:21:00,
2013-02-23 17:26:00,39.1,22.9,29.86,NW,322,1.0,2.7,52,0.01,,,0.19,WUHU216HW,2013-02-23 23:26:00,
2013-02-23 17:31:00,38.2,22.5,29.86,NNW,342,1.0,2.7,53,0.01,,,0.19,WUHU216HW,2013-02-23 23:31:00,
2013-02-23 17:36:00,37.4,22.2,29.86,NNE,18,1.0,1.8,54,0.01,,,0.19,WUHU216HW,2013-02-23 23:36:00,
2013-02-23 17:41:00,36.7,22.5,29.86,NW,315,0.4,1.8,56,0.01,,,0.19,WUHU216HW,2013-02-23 23:41:00,
2013-02-23 17:46:00,36.4,22.6,29.86,NW,315,0.4,1.6,57,0.01,,,0.19,WUHU216HW,2013-02-23 23:46:00,
2013-02-23 17:51:00,35.8,22.5,29.86,NW,315,0.3,1.6,58,0.01,,,0.19,WUHU216HW,2013-02-23 23:51:00,
2013-02-23 17:56:00,35.5,22.1,29.87,North,0,0.7,0.7,58,0.01,,,0.19,WUHU216HW,2013-02-23 23:56:00,
2013-02-23 18:01:00,35.1,22.2,29.87,North,0,0.4,0.7,59,0.00,,,0.19,WUHU216HW,2013-02-24 00:01:00,
2013-02-23 18:06:00,34.7,21.4,29.87,NW,315,0.0,0.4,58,0.00,,,0.19,WUHU216HW,2013-02-24 00:06:00,
2013-02-23 18:11:00,34.2,20.9,29.87,NW,315,0.0,0.4,58,0.00,,,0.19,WUHU216HW,2013-02-24 00:11:00,
2013-02-23 18:16:00,33.8,20.5,29.87,NW,315,0.0,0.0,58,0.00,,,0.19,WUHU216HW,2013-02-24 00:16:00,
2013-02-23 18:21:00,33.5,20.7,29.87,NW,315,0.0,0.0,59,0.00,,,0.19,WUHU216HW,2013-02-24 00:21:00,
2013-02-23 18:26:00,33.1,20.3,29.87,NW,315,0.0,0.0,59,0.00,,,0.19,WUHU216HW,2013-02-24 00:26:00,
2013-02-23 18:31:00,32.8,20.4,29.87,NW,315,0.0,0.0,60,0.00,,,0.19,WUHU216HW,2013-02-24 00:31:00,
2013-02-23 18:36:00,32.2,20.0,29.87,NW,315,0.0,0.0,60,0.00,,,0.19,WUHU216HW,2013-02-24 00:36:00,
2013-02-23 18:41:00,31.9,20.0,29.87,NW,315,0.0,0.0,61,0.00,,,0.19,WUHU216HW,2013-02-24 00:41:00,
2013-02-23 18:46:00,31.5,20.0,29.87,NNE,23,0.4,0.4,62,0.00,,,0.19,WUHU216HW,2013-02-24 00:46:00,
2013-02-23 18:51:00,31.3,20.2,29.86,NNE,23,0.0,0.4,63,0.00,,,0.19,WUHU216HW,2013-02-24 00:51:00,
2013-02-23 18:56:00,31.3,20.2,29.87,NNE,23,0.0,0.4,63,0.00,,,0.19,WUHU216HW,2013-02-24 00:56:00,
2013-02-23 19:01:00,31.0,19.8,29.87,NNE,23,0.0,0.0,63,0.00,,,0.19,WUHU216HW,2013-02-24 01:01:00,
2013-02-23 19:06:00,30.8,20.7,29.87,NNE,23,0.0,0.0,66,0.00,,,0.19,WUHU216HW,2013-02-24 01:06:00,
2013-02-23 19:11:00,30.6,20.2,29.87,NNE,23,0.0,0.0,65,0.00,,,0.19,WUHU216HW,2013-02-24 01:11:00,
2013-02-23 19:16:00,30.6,20.2,29.87,NNE,23,0.0,0.0,65,0.00,,,0.19,WUHU216HW,2013-02-24 01:16:00,
2013-02-23 19:21:00,30.2,20.2,29.87,NNE,23,0.0,0.0,66,0.00,,,0.19,WUHU216HW,2013-02-24 01:21:00,
2013-02-23 19:26:00,30.2,20.2,29.87,NNE,23,0.0,0.0,66,0.00,,,0.19,WUHU216HW,2013-02-24 01:26:00,
2013-02-23 19:31:00,29.9,19.8,29.87,NNE,23,0.0,0.0,66,0.00,,,0.19,WUHU216HW,2013-02-24 01:31:00,
2013-02-23 19:36:00,29.9,19.8,29.87,NNE,23,0.0,0.0,66,0.00,,,0.19,WUHU216HW,2013-02-24 01:36:00,
2013-02-23 19:41:00,29.5,19.5,29.87,NNE,23,0.0,0.0,66,0.00,,,0.19,WUHU216HW,2013-02-24 01:41:00,
2013-02-23 19:46:00,29.3,19.4,29.87,NNE,23,0.0,0.0,66,0.00,,,0.19,WUHU216HW,2013-02-24 01:46:00,
2013-02-23 19:51:00,29.2,19.2,29.87,NNE,23,0.0,0.0,66,0.00,,,0.19,WUHU216HW,2013-02-24 01:51:00,
2013-02-23 19:56:00,29.2,19.9,29.87,NNE,23,0.0,0.0,68,0.00,,,0.19,WUHU216HW,2013-02-24 01:56:00,
2013-02-23 20:01:00,29.2,20.6,29.86,NNE,23,0.0,0.0,70,0.00,,,0.19,WUHU216HW,2013-02-24 02:01:00,
2013-02-23 20:06:00,29.2,19.9,29.86,NNE,23,0.0,0.0,68,0.00,,,0.19,WUHU216HW,2013-02-24 02:06:00,
2013-02-23 20:11:00,29.0,19.7,29.86,NNE,23,0.0,0.0,68,0.00,,,0.19,WUHU216HW,2013-02-24 02:11:00,
2013-02-23 20:16:00,28.8,19.6,29.86,NNE,23,0.0,0.0,68,0.00,,,0.19,WUHU216HW,2013-02-24 02:16:00,
2013-02-23 20:21:00,28.8,20.6,29.86,NNE,23,0.0,0.0,71,0.00,,,0.19,WUHU216HW,2013-02-24 02:21:00,
2013-02-23 20:26:00,28.8,20.4,29.87,NNE,23,0.0,0.0,70,0.00,,,0.19,WUHU216HW,2013-02-24 02:26:00,
2013-02-23 20:31:00,28.8,20.4,29.88,NNE,23,0.0,0.0,70,0.00,,,0.19,WUHU216HW,2013-02-24 02:31:00,
2013-02-23 20:36:00,28.8,20.4,29.87,NNE,23,0.0,0.0,70,0.00,,,0.19,WUHU216HW,2013-02-24 02:36:00,
2013-02-23 20:41:00,28.6,19.8,29.87,NNE,23,0.0,0.0,69,0.00,,,0.19,WUHU216HW,2013-02-24 02:41:00,
2013-02-23 20:46:00,28.4,20.0,29.88,NNE,23,0.0,0.0,70,0.00,,,0.19,WUHU216HW,2013-02-24 02:46:00,
2013-02-23 20:51:00,28.4,20.0,29.88,NNE,23,0.0,0.0,70,0.00,,,0.19,WUHU216HW,2013-02-24 02:51:00,
2013-02-23 20:56:00,28.1,19.6,29.88,NNE,23,0.0,0.0,70,0.00,,,0.19,WUHU216HW,2013-02-24 02:56:00,
2013-02-23 21:01:00,27.9,19.4,29.88,NNE,23,0.0,0.0,70,0.00,,,0.19,WUHU216HW,2013-02-24 03:01:00,
2013-02-23 21:06:00,27.9,20.7,29.88,NNE,23,0.0,0.0,74,0.00,,,0.19,WUHU216HW,2013-02-24 03:06:00,
2013-02-23 21:11:00,27.7,19.9,29.88,NNE,23,0.0,0.0,72,0.00,,,0.19,WUHU216HW,2013-02-24 03:11:00,
2013-02-23 21:16:00,27.7,19.5,29.88,NNE,23,0.0,0.0,71,0.00,,,0.19,WUHU216HW,2013-02-24 03:16:00,
2013-02-23 21:21:00,27.5,19.7,29.88,NNE,23,0.0,0.0,72,0.00,,,0.19,WUHU216HW,2013-02-24 03:21:00,
2013-02-23 21:26:00,27.5,20.6,29.88,NNE,23,0.2,0.2,75,0.00,,,0.19,WUHU216HW,2013-02-24 03:26:00,
2013-02-23 21:31:00,27.5,20.6,29.87,NNE,23,0.0,0.2,75,0.00,,,0.19,WUHU216HW,2013-02-24 03:31:00,
2013-02-23 21:36:00,27.4,19.8,29.87,NNE,23,0.0,0.0,73,0.00,,,0.19,WUHU216HW,2013-02-24 03:36:00,
2013-02-23 21:41:00,27.2,19.4,29.87,NNE,23,0.0,0.0,72,0.00,,,0.19,WUHU216HW,2013-02-24 03:41:00,
2013-02-23 21:46:00,27.0,19.2,29.87,NNE,23,0.0,0.0,72,0.00,,,0.19,WUHU216HW,2013-02-24 03:46:00,
2013-02-23 21:51:00,26.8,19.3,29.87,NNE,23,0.0,0.0,73,0.00,,,0.19,WUHU216HW,2013-02-24 03:51:00,
2013-02-23 21:56:00,26.6,18.8,29.87,NNE,23,0.0,0.0,72,0.00,,,0.19,WUHU216HW,2013-02-24 03:56:00,
2013-02-23 22:01:00,26.6,18.8,29.87,NNE,23,0.0,0.0,72,0.00,,,0.19,WUHU216HW,2013-02-24 04:01:00,
2013-02-23 22:06:00,26.5,18.6,29.87,NNE,23,0.0,0.0,72,0.00,,,0.19,WUHU216HW,2013-02-24 04:06:00,
2013-02-23 22:11:00,26.3,18.5,29.87,NNE,23,0.0,0.0,72,0.00,,,0.19,WUHU216HW,2013-02-24 04:11:00,
2013-02-23 22:16:00,26.3,19.1,29.87,NNE,23,0.0,0.0,74,0.00,,,0.19,WUHU216HW,2013-02-24 04:16:00,
2013-02-23 22:21:00,26.3,19.1,29.86,NNE,23,0.0,0.0,74,0.00,,,0.19,WUHU216HW,2013-02-24 04:21:00,
2013-02-23 22:26:00,26.5,19.5,29.86,NNE,23,0.0,0.0,75,0.00,,,0.19,WUHU216HW,2013-02-24 04:26:00,
2013-02-23 22:31:00,26.6,19.5,29.87,NNE,23,0.2,0.2,74,0.00,,,0.19,WUHU216HW,2013-02-24 04:31:00,
2013-02-23 22:36:00,26.6,19.5,29.87,NNE,23,0.0,0.2,74,0.00,,,0.19,WUHU216HW,2013-02-24 04:36:00,
2013-02-23 22:41:00,26.6,19.1,29.88,NNE,23,0.0,0.0,73,0.00,,,0.19,WUHU216HW,2013-02-24 04:41:00,
2013-02-23 22:46:00,26.6,19.1,29.88,NNE,23,0.0,0.0,73,0.00,,,0.19,WUHU216HW,2013-02-24 04:46:00,
2013-02-23 22:51:00,26.5,18.9,29.88,NNE,23,0.0,0.0,73,0.00,,,0.19,WUHU216HW,2013-02-24 04:51:00,
2013-02-23 22:56:00,26.3,18.7,29.88,NNE,23,0.0,0.0,73,0.00,,,0.19,WUHU216HW,2013-02-24 04:56:00,
2013-02-23 23:00:00,26.3,19.1,29.87,NNE,23,0.0,0.0,74,0.00,,,0.19,WUHU216HW,2013-02-24 05:00:00,
2013-02-23 23:05:00,26.1,18.9,29.87,NNE,23,0.0,0.0,74,0.00,,,0.19,WUHU216HW,2013-02-24 05:05:00,
2013-02-23 23:10:00,26.1,18.9,29.87,NNE,23,0.0,0.0,74,0.00,,,0.19,WUHU216HW,2013-02-24 05:10:00,
2013-02-23 23:15:00,25.9,18.7,29.87,NNE,23,0.0,0.0,74,0.00,,,0.19,WUHU216HW,2013-02-24 05:15:00,
2013-02-23 23:20:00,25.7,18.5,29.87,NNE,23,0.0,0.0,74,0.00,,,0.19,WUHU216HW,2013-02-24 05:20:00,
2013-02-23 23:25:00,25.6,18.4,29.87,NNE,23,0.0,0.0,74,0.00,,,0.19,WUHU216HW,2013-02-24 05:25:00,
2013-02-23 23:30:00,25.4,18.6,29.87,NNE,23,0.0,0.0,75,0.00,,,0.19,WUHU216HW,2013-02-24 05:30:00,
2013-02-23 23:35:00,25.4,18.6,29.88,NNE,23,0.0,0.0,75,0.00,,,0.19,WUHU216HW,2013-02-24 05:35:00,
2013-02-23 23:40:00,25.2,18.4,29.88,NNE,23,0.0,0.0,75,0.00,,,0.19,WUHU216HW,2013-02-24 05:40:00,
2013-02-23 23:45:00,25.2,18.4,29.88,NNE,23,0.0,0.0,75,0.00,,,0.19,WUHU216HW,2013-02-24 05:45:00,
2013-02-23 23:50:00,24.8,18.0,29.88,NNE,23,0.0,0.0,75,0.00,,,0.19,WUHU216HW,2013-02-24 05:50:00,
2013-02-23 23:55:00,24.8,18.0,29.88,NNE,23,0.0,0.0,75,0.00,,,0.19,WUHU216HW,2013-02-24 05:55:00,